EW6466 Weather Reports


Display with metric or nautical units.
time (UTC)temp
F
wind
direction
speed
MPH
gust
MPH
rain 1hr
in
rain 24hr
in
rain mn
in
humidity
%
barometer
mb
20260903110041 77 165 2.0 9.0 0.00 0.00 0.00 83 1010.5
20260903104554 77 205 1.0 6.0 0.00 0.00 0.00 83 1010.4
20260903103054 77 167 2.0 7.0 0.00 0.00 0.00 83 1010.4
20260903101541 77 157 1.0 6.0 0.00 0.00 0.00 82 1010.5
20260903100037 77 173 4.0 11.0 0.00 0.00 0.00 81 1010.4
20260903094535 78 139 2.0 7.0 0.00 0.00 0.00 81 1010.5
20260903093044 78 217 4.0 11.0 0.00 0.00 0.00 81 1010.2
20260903091536 78 154 4.0 10.0 0.00 0.00 0.00 79 1010.5
20260903090033 78 198 4.0 8.0 0.00 0.00 0.00 78 1010.3
20260903084540 79 166 3.0 8.0 0.00 0.00 0.00 77 1010.4
20260903083022 79 106 0.0 4.0 0.00 0.00 0.00 75 1010.6
20260903081521 80 151 0.0 6.0 0.00 0.00 0.00 75 1010.7
20260903080020 80 164 2.0 6.0 0.00 0.00 0.00 75 1010.7
20260903074519 80 139 2.0 9.0 0.00 0.00 0.00 74 1010.7
20260903073017 81 148 2.0 7.0 0.00 0.00 0.00 73 1010.5
20260903071515 81 122 5.0 10.0 0.00 0.00 0.00 72 1010.7
20260903070022 82 157 3.0 10.0 0.00 0.00 0.00 71 1010.7
20260903064509 82 158 4.0 10.0 0.00 0.00 0.00 69 1010.8
20260903063008 83 207 7.0 15.0 0.00 0.00 0.00 68 1010.8
20260903061513 83 202 5.0 14.0 0.00 0.00 0.00 67 1010.8
20260903060004 83 224 6.0 15.0 0.00 0.00 0.00 66 1010.9
20260903054508 84 167 4.0 12.0 0.00 0.00 0.00 64 1010.9
20260903053002 84 167 5.0 11.0 0.00 0.00 0.00 62 1010.9
20260903051600 84 185 3.0 11.0 0.00 0.00 0.00 60 1010.8
20260903050056 82 190 3.0 14.0 0.00 0.00 0.00 59 1010.7
20260903044555 78 225 2.0 10.0 0.00 0.00 0.00 62 1010.8
20260903043055 77 192 0.0 2.0 0.00 0.00 0.00 60 1010.5
20260903041554 77 192 0.0 2.0 0.00 0.00 0.00 59 1010.4
20260903040057 78 192 0.0 2.0 0.00 0.00 0.00 58 1010.3
20260903034553 78 192 0.0 3.0 0.00 0.00 0.00 57 1010.3
20260903033059 79 192 0.0 2.0 0.00 0.00 0.00 56 1010.1
20260903031553 80 192 0.0 0.0 0.00 0.00 0.00 55 1009.9
20260903030100 80 192 0.0 0.0 0.00 0.00 0.00 54 1009.7
20260903024551 82 192 0.0 0.0 0.00 0.00 0.00 52 1009.6
20260903023051 83 192 0.0 0.0 0.00 0.00 0.00 49 1009.2
20260903021550 84 192 0.0 1.0 0.00 0.00 0.00 48 1009.0
20260903014551 88 192 0.0 3.0 0.00 0.00 0.00 43 1008.7
20260903013049 90 192 1.0 4.0 0.00 0.00 0.00 39 1008.6
20260903011548 91 191 0.0 2.0 0.00 0.00 0.00 37 1008.5
20260903010147 92 191 0.0 5.0 0.00 0.00 0.00 36 1008.4
20260903004548 93 193 2.0 6.0 0.00 0.00 0.00 36 1008.4
20260903003047 94 65 1.0 4.0 0.00 0.00 0.00 36 1008.4
20260903001559 94 69 1.0 5.0 0.00 0.00 0.00 35 1008.5
20260903000046 95 54 3.0 7.0 0.00 0.00 0.00 35 1008.5
20260902234546 95 51 2.0 7.0 0.00 0.00 0.00 34 1008.6
20260902233043 94 82 4.0 8.0 0.00 0.00 0.00 35 1008.7
20260902231542 95 29 3.0 10.0 0.00 0.00 0.00 36 1008.8
20260902230040 96 42 3.0 8.0 0.00 0.00 0.00 34 1008.7
20260902224540 96 50 3.0 7.0 0.00 0.00 0.00 35 1008.7
20260902223038 97 36 4.0 9.0 0.00 0.00 0.00 34 1008.7
20260902221556 99 94 1.0 6.0 0.00 0.00 0.00 32 1008.8
20260902220037 99 149 2.0 8.0 0.00 0.00 0.00 31 1008.9
20260902214535 98 60 4.0 10.0 0.00 0.00 0.00 33 1008.9
20260902213036 99 38 3.0 13.0 0.00 0.00 0.00 31 1009.0
20260902211533 101 137 4.0 9.0 0.00 0.00 0.00 31 1009.2
20260902210031 101 186 4.0 9.0 0.00 0.00 0.00 31 1009.1
20260902204527 99 290 3.0 9.0 0.00 0.00 0.00 32 1009.5
20260902203025 97 109 5.0 10.0 0.00 0.00 0.00 35 1009.8
20260902201526 99 118 5.0 11.0 0.00 0.00 0.00 34 1010.1
20260902200021 98 65 3.0 8.0 0.00 0.00 0.00 34 1010.3
20260902194526 101 158 3.0 8.0 0.00 0.00 0.00 31 1010.5
20260902193014 99 227 2.0 8.0 0.00 0.00 0.00 33 1010.7
20260902191516 97 223 4.0 9.0 0.00 0.00 0.00 34 1011.0
20260902190010 98 208 2.0 11.0 0.00 0.00 0.00 34 1011.3
20260902184508 97 233 9.0 16.0 0.00 0.00 0.00 37 1011.5
20260902183006 99 163 7.0 12.0 0.00 0.00 0.00 34 1011.7
20260902181503 99 240 5.0 12.0 0.00 0.00 0.00 35 1011.9
20260902180104 98 187 3.0 10.0 0.00 0.00 0.00 36 1012.3
20260902174557 97 216 5.0 17.0 0.00 0.00 0.00 36 1012.5
20260902173058 98 155 5.0 14.0 0.00 0.00 0.00 36 1012.8
20260902171610 96 169 3.0 10.0 0.00 0.00 0.00 38 1013.0
20260902170051 95 160 4.0 10.0 0.00 0.00 0.00 41 1013.2
20260902164600 94 165 6.0 10.0 0.00 0.00 0.00 41 1013.2
20260902163046 94 210 4.0 9.0 0.00 0.00 0.00 43 1013.2
20260902161542 93 223 3.0 10.0 0.00 0.00 0.00 45 1013.3
20260902160046 91 221 3.0 11.0 0.00 0.00 0.00 48 1013.3
20260902154547 90 229 4.0 10.0 0.00 0.00 0.00 52 1013.4
20260902153032 88 194 3.0 9.0 0.00 0.00 0.00 57 1013.4
20260902151533 87 193 3.0 10.0 0.00 0.00 0.00 59 1013.5
20260902150025 86 213 4.0 7.0 0.00 0.00 0.00 61 1013.5
20260902144520 84 227 4.0 6.0 0.00 0.00 0.00 66 1013.4
20260902143017 83 227 3.0 8.0 0.00 0.00 0.00 67 1013.3
20260902141514 82 224 2.0 5.0 0.00 0.00 0.00 71 1013.3
20260902140015 80 224 1.0 3.0 0.00 0.00 0.00 73 1013.3
20260902134511 77 224 0.0 2.0 0.00 0.00 0.00 77 1013.4
20260902133014 74 224 0.0 0.0 0.00 0.00 0.00 81 1013.4
20260902131510 72 224 0.0 0.0 0.00 0.00 0.00 83 1013.3
20260902130024 71 224 0.0 0.0 0.00 0.00 0.00 82 1013.3
20260902124507 71 224 0.0 0.0 0.00 0.00 0.00 82 1013.0
20260902123017 71 224 0.0 2.0 0.00 0.00 0.00 81 1012.8
20260902121505 72 224 1.0 3.0 0.00 0.00 0.00 80 1012.7
20260902120002 72 224 0.0 2.0 0.00 0.00 0.00 79 1012.7
20260902114618 73 224 0.0 2.0 0.00 0.00 0.00 77 1012.7
20260902113055 74 224 1.0 3.0 0.00 0.00 0.00 76 1012.6
20260902111552 75 224 0.0 3.0 0.00 0.00 0.00 76 1012.6